Time,TemperatureF,DewpointF,PressureIn,WindDirection,WindDirectionDegrees,WindSpeedMPH,WindSpeedGustMPH,Humidity,HourlyPrecipIn,Conditions,Clouds,dailyrainin,SoftwareType,DateUTC
2013-12-03 00:11:00,54.8,53.0,29.95,SE,130,0.0,-999.0,93,-99.99,,,0.00,weatherlink.com 1.10,2013-12-03 08:11:00,
2013-12-03 00:26:00,55.1,53.0,29.94,SE,129,0.0,-999.0,93,-99.99,,,0.00,weatherlink.com 1.10,2013-12-03 08:26:00,
2013-12-03 00:41:00,55.1,53.0,29.92,SE,129,2.0,-999.0,93,-99.99,,,0.00,weatherlink.com 1.10,2013-12-03 08:41:00,
2013-12-03 00:56:00,55.3,53.0,29.92,WSW,244,0.0,-999.0,93,-99.99,,,0.00,weatherlink.com 1.10,2013-12-03 08:56:00,
2013-12-03 01:11:00,55.1,53.0,29.91,SSE,159,0.0,-999.0,93,-99.99,,,0.00,weatherlink.com 1.10,2013-12-03 09:11:00,
2013-12-03 01:26:00,55.0,53.0,29.92,SSE,159,0.0,-999.0,93,-99.99,,,0.00,weatherlink.com 1.10,2013-12-03 09:26:00,
2013-12-03 01:41:00,54.2,52.0,29.92,SSE,159,0.0,-999.0,92,-99.99,,,0.00,weatherlink.com 1.10,2013-12-03 09:41:00,
2013-12-03 01:56:00,53.1,50.0,29.92,West,268,0.0,-999.0,90,-99.99,,,0.00,weatherlink.com 1.10,2013-12-03 09:56:00,
2013-12-03 02:11:00,52.6,49.0,29.92,North,351,0.0,-999.0,87,-99.99,,,0.00,weatherlink.com 1.10,2013-12-03 10:11:00,
2013-12-03 02:26:00,52.5,48.0,29.92,ENE,63,0.0,-999.0,85,-99.99,,,0.00,weatherlink.com 1.10,2013-12-03 10:26:00,
2013-12-03 02:41:00,52.5,47.0,29.92,NE,36,0.0,-999.0,82,-99.99,,,0.00,weatherlink.com 1.10,2013-12-03 10:41:00,
2013-12-03 02:56:00,52.5,47.0,29.92,West,277,0.0,-999.0,80,-99.99,,,0.00,weatherlink.com 1.10,2013-12-03 10:56:00,
2013-12-03 03:11:00,52.3,45.0,29.92,WNW,294,0.0,-999.0,76,-99.99,,,0.00,weatherlink.com 1.10,2013-12-03 11:11:00,
2013-12-03 03:26:00,52.3,43.0,29.91,West,278,3.0,-999.0,70,-99.99,,,0.00,weatherlink.com 1.10,2013-12-03 11:26:00,
2013-12-03 03:41:00,52.2,41.0,29.90,West,270,0.0,-999.0,66,-99.99,,,0.00,weatherlink.com 1.10,2013-12-03 11:41:00,
2013-12-03 03:56:00,51.9,40.0,29.90,West,262,0.0,-999.0,64,-99.99,,,0.00,weatherlink.com 1.10,2013-12-03 11:56:00,
2013-12-03 04:11:00,51.6,40.0,29.90,West,259,2.0,-999.0,66,-99.99,,,0.00,weatherlink.com 1.10,2013-12-03 12:11:00,
2013-12-03 04:26:00,51.3,41.0,29.90,SW,229,0.0,-999.0,69,-99.99,,,0.00,weatherlink.com 1.10,2013-12-03 12:26:00,
2013-12-03 04:41:00,51.0,41.0,29.90,WNW,287,3.0,-999.0,68,-99.99,,,0.00,weatherlink.com 1.10,2013-12-03 12:41:00,
2013-12-03 04:56:00,50.8,41.0,29.90,NW,311,0.0,-999.0,68,-99.99,,,0.00,weatherlink.com 1.10,2013-12-03 12:56:00,
2013-12-03 05:11:00,50.5,40.0,29.91,NW,313,4.0,-999.0,67,-99.99,,,0.00,weatherlink.com 1.10,2013-12-03 13:11:00,
2013-12-03 05:26:00,50.2,38.0,29.91,West,277,0.0,-999.0,63,-99.99,,,0.00,weatherlink.com 1.10,2013-12-03 13:26:00,
2013-12-03 05:42:00,50.4,37.0,29.91,WNW,300,0.0,-999.0,61,-99.99,,,0.00,weatherlink.com 1.10,2013-12-03 13:42:00,
2013-12-03 05:57:00,50.2,37.0,29.90,WSW,248,0.0,-999.0,61,-99.99,,,0.00,weatherlink.com 1.10,2013-12-03 13:57:00,
2013-12-03 06:12:00,50.2,36.0,29.90,North,360,1.0,-999.0,59,-99.99,,,0.00,weatherlink.com 1.10,2013-12-03 14:12:00,
2013-12-03 06:27:00,50.4,36.0,29.90,NW,325,1.0,-999.0,59,-99.99,,,0.00,weatherlink.com 1.10,2013-12-03 14:27:00,
2013-12-03 06:42:00,50.2,37.0,29.90,SW,226,0.0,-999.0,60,-99.99,,,0.00,weatherlink.com 1.10,2013-12-03 14:42:00,
2013-12-03 06:57:00,50.2,37.0,29.90,WNW,290,0.0,-999.0,60,-99.99,,,0.00,weatherlink.com 1.10,2013-12-03 14:57:00,
2013-12-03 07:12:00,50.1,37.0,29.90,West,279,0.0,-999.0,60,-99.99,,,0.00,weatherlink.com 1.10,2013-12-03 15:12:00,
2013-12-03 07:27:00,49.9,36.0,29.90,NW,321,0.0,-999.0,60,-99.99,,,0.00,weatherlink.com 1.10,2013-12-03 15:27:00,
2013-12-03 07:42:00,49.9,36.0,29.90,WNW,292,0.0,-999.0,60,-99.99,,,0.00,weatherlink.com 1.10,2013-12-03 15:42:00,
2013-12-03 07:57:00,49.9,37.0,29.90,WSW,258,1.0,-999.0,61,-99.99,,,0.00,weatherlink.com 1.10,2013-12-03 15:57:00,
2013-12-03 08:12:00,50.1,37.0,29.90,NNW,338,3.0,-999.0,61,-99.99,,,0.00,weatherlink.com 1.10,2013-12-03 16:12:00,
2013-12-03 08:27:00,50.4,37.0,29.90,SSW,198,0.0,-999.0,60,-99.99,,,0.00,weatherlink.com 1.10,2013-12-03 16:27:00,
2013-12-03 08:42:00,50.4,36.0,29.90,WSW,241,2.0,-999.0,59,-99.99,,,0.00,weatherlink.com 1.10,2013-12-03 16:42:00,
2013-12-03 08:57:00,50.8,35.0,29.91,West,281,0.0,-999.0,56,-99.99,,,0.00,weatherlink.com 1.10,2013-12-03 16:57:00,
2013-12-03 09:12:00,51.3,35.0,29.90,NW,322,0.0,-999.0,55,-99.99,,,0.00,weatherlink.com 1.10,2013-12-03 17:12:00,
2013-12-03 09:27:00,51.3,34.0,29.90,NNE,26,0.0,-999.0,52,-99.99,,,0.00,weatherlink.com 1.10,2013-12-03 17:27:00,
2013-12-03 09:42:00,51.3,33.0,29.89,WNW,303,0.0,-999.0,49,-99.99,,,0.00,weatherlink.com 1.10,2013-12-03 17:42:00,
2013-12-03 09:57:00,51.3,32.0,29.90,West,261,1.0,-999.0,48,-99.99,,,0.00,weatherlink.com 1.10,2013-12-03 17:57:00,
2013-12-03 10:12:00,51.4,31.0,29.90,West,267,1.0,-999.0,45,-99.99,,,0.00,weatherlink.com 1.10,2013-12-03 18:12:00,
2013-12-03 10:27:00,51.3,30.0,29.90,NNW,342,0.0,-999.0,45,-99.99,,,0.00,weatherlink.com 1.10,2013-12-03 18:27:00,
2013-12-03 10:42:00,51.6,31.0,29.90,SW,233,0.0,-999.0,46,-99.99,,,0.00,weatherlink.com 1.10,2013-12-03 18:42:00,
2013-12-03 10:57:00,52.0,30.0,29.89,North,360,0.0,-999.0,43,-99.99,,,0.00,weatherlink.com 1.10,2013-12-03 18:57:00,
2013-12-03 11:12:00,51.9,30.0,29.89,NNE,15,0.0,-999.0,44,-99.99,,,0.00,weatherlink.com 1.10,2013-12-03 19:12:00,
2013-12-03 11:27:00,51.6,31.0,29.88,NW,307,0.0,-999.0,45,-99.99,,,0.00,weatherlink.com 1.10,2013-12-03 19:27:00,
2013-12-03 11:42:00,51.3,30.0,29.88,SSW,213,0.0,-999.0,44,-99.99,,,0.00,weatherlink.com 1.10,2013-12-03 19:42:00,
2013-12-03 11:57:00,51.4,31.0,29.87,West,262,0.0,-999.0,46,-99.99,,,0.00,weatherlink.com 1.10,2013-12-03 19:57:00,
2013-12-03 12:12:00,51.4,31.0,29.86,SW,234,0.0,-999.0,45,-99.99,,,0.00,weatherlink.com 1.10,2013-12-03 20:12:00,
2013-12-03 12:27:00,51.4,31.0,29.86,NNW,342,1.0,-999.0,45,-99.99,,,0.00,weatherlink.com 1.10,2013-12-03 20:27:00,
2013-12-03 12:43:00,51.9,31.0,29.86,NW,320,0.0,-999.0,45,-99.99,,,0.00,weatherlink.com 1.10,2013-12-03 20:43:00,
2013-12-03 12:58:00,52.3,31.0,29.86,ESE,103,0.0,-999.0,45,-99.99,,,0.00,weatherlink.com 1.10,2013-12-03 20:58:00,
2013-12-03 13:13:00,52.8,31.0,29.85,West,264,0.0,-999.0,44,-99.99,,,0.00,weatherlink.com 1.10,2013-12-03 21:13:00,
2013-12-03 13:28:00,53.2,30.0,29.84,West,265,0.0,-999.0,42,-99.99,,,0.00,weatherlink.com 1.10,2013-12-03 21:28:00,
2013-12-03 13:42:00,53.3,31.0,29.84,ENE,78,0.0,-999.0,42,-99.99,,,0.00,weatherlink.com 1.10,2013-12-03 21:42:00,
2013-12-03 13:57:00,54.1,30.0,29.84,West,272,0.0,-999.0,40,-99.99,,,0.00,weatherlink.com 1.10,2013-12-03 21:57:00,
2013-12-03 14:13:00,56.2,31.0,29.84,SW,226,1.0,-999.0,39,-99.99,,,0.00,weatherlink.com 1.10,2013-12-03 22:13:00,
2013-12-03 14:28:00,56.5,32.0,29.84,SSW,205,2.0,-999.0,40,-99.99,,,0.00,weatherlink.com 1.10,2013-12-03 22:28:00,
2013-12-03 14:43:00,56.6,32.0,29.84,SW,234,1.0,-999.0,40,-99.99,,,0.00,weatherlink.com 1.10,2013-12-03 22:43:00,
2013-12-03 14:58:00,56.2,29.0,29.84,West,271,0.0,-999.0,35,-99.99,,,0.00,weatherlink.com 1.10,2013-12-03 22:58:00,
2013-12-03 15:13:00,55.7,30.0,29.84,SW,233,0.0,-999.0,38,-99.99,,,0.00,weatherlink.com 1.10,2013-12-03 23:13:00,
2013-12-03 15:28:00,55.3,29.0,29.84,WNW,302,0.0,-999.0,37,-99.99,,,0.00,weatherlink.com 1.10,2013-12-03 23:28:00,
2013-12-03 15:43:00,53.9,29.0,29.84,WNW,296,0.0,-999.0,39,-99.99,,,0.00,weatherlink.com 1.10,2013-12-03 23:43:00,
2013-12-03 15:58:00,53.5,30.0,29.84,WNW,296,0.0,-999.0,41,-99.99,,,0.00,weatherlink.com 1.10,2013-12-03 23:58:00,
2013-12-03 16:13:00,53.2,32.0,29.84,WNW,296,0.0,-999.0,44,-99.99,,,0.00,weatherlink.com 1.10,2013-12-04 00:13:00,
2013-12-03 16:28:00,52.6,31.0,29.84,WNW,296,0.0,-999.0,44,-99.99,,,0.00,weatherlink.com 1.10,2013-12-04 00:28:00,
2013-12-03 16:44:00,51.6,32.0,29.84,WNW,296,0.0,-999.0,48,-99.99,,,0.00,weatherlink.com 1.10,2013-12-04 00:44:00,
2013-12-03 16:59:00,50.4,34.0,29.84,WNW,296,0.0,-999.0,53,-99.99,,,0.00,weatherlink.com 1.10,2013-12-04 00:59:00,
2013-12-03 17:14:00,49.1,35.0,29.84,WNW,296,0.0,-999.0,58,-99.99,,,0.00,weatherlink.com 1.10,2013-12-04 01:14:00,
2013-12-03 17:29:00,48.0,35.0,29.84,WNW,296,0.0,-999.0,61,-99.99,,,0.00,weatherlink.com 1.10,2013-12-04 01:29:00,
2013-12-03 17:43:00,47.1,35.0,29.85,WNW,296,0.0,-999.0,63,-99.99,,,0.00,weatherlink.com 1.10,2013-12-04 01:43:00,
2013-12-03 17:58:00,46.5,35.0,29.86,WNW,296,0.0,-999.0,65,-99.99,,,0.00,weatherlink.com 1.10,2013-12-04 01:58:00,
2013-12-03 18:14:00,46.1,36.0,29.86,WNW,297,0.0,-999.0,67,-99.99,,,0.00,weatherlink.com 1.10,2013-12-04 02:14:00,
2013-12-03 18:29:00,45.7,36.0,29.86,WNW,297,0.0,-999.0,68,-99.99,,,0.00,weatherlink.com 1.10,2013-12-04 02:29:00,
2013-12-03 18:44:00,45.7,34.0,29.86,WNW,297,0.0,-999.0,63,-99.99,,,0.00,weatherlink.com 1.10,2013-12-04 02:44:00,
2013-12-03 18:59:00,45.2,34.0,29.86,WNW,297,0.0,-999.0,64,-99.99,,,0.00,weatherlink.com 1.10,2013-12-04 02:59:00,
2013-12-03 19:14:00,44.6,33.0,29.86,WNW,297,0.0,-999.0,65,-99.99,,,0.00,weatherlink.com 1.10,2013-12-04 03:14:00,
2013-12-03 19:29:00,44.2,33.0,29.87,WNW,297,0.0,-999.0,65,-99.99,,,0.00,weatherlink.com 1.10,2013-12-04 03:29:00,
2013-12-03 19:44:00,43.6,31.0,29.87,NW,325,0.0,-999.0,61,-99.99,,,0.00,weatherlink.com 1.10,2013-12-04 03:44:00,
2013-12-03 19:59:00,43.5,29.0,29.87,NW,325,0.0,-999.0,58,-99.99,,,0.00,weatherlink.com 1.10,2013-12-04 03:59:00,
2013-12-03 20:14:00,42.9,28.0,29.88,NW,325,0.0,-999.0,55,-99.99,,,0.00,weatherlink.com 1.10,2013-12-04 04:14:00,
2013-12-03 20:29:00,43.1,26.0,29.89,NW,325,0.0,-999.0,51,-99.99,,,0.00,weatherlink.com 1.10,2013-12-04 04:29:00,
2013-12-03 20:44:00,42.8,26.0,29.89,NW,325,0.0,-999.0,52,-99.99,,,0.00,weatherlink.com 1.10,2013-12-04 04:44:00,
2013-12-03 20:59:00,42.3,27.0,29.90,NW,325,0.0,-999.0,54,-99.99,,,0.00,weatherlink.com 1.10,2013-12-04 04:59:00,
2013-12-03 21:15:00,41.9,28.0,29.91,NW,325,0.0,-999.0,58,-99.99,,,0.00,weatherlink.com 1.10,2013-12-04 05:15:00,
2013-12-03 21:30:00,41.5,30.0,29.91,NW,325,0.0,-999.0,63,-99.99,,,0.00,weatherlink.com 1.10,2013-12-04 05:30:00,
2013-12-03 21:44:00,41.5,31.0,29.91,NW,326,0.0,-999.0,66,-99.99,,,0.00,weatherlink.com 1.10,2013-12-04 05:44:00,
2013-12-03 21:59:00,41.5,32.0,29.91,SSE,155,0.0,-999.0,68,-99.99,,,0.00,weatherlink.com 1.10,2013-12-04 05:59:00,
2013-12-03 22:15:00,41.6,32.0,29.91,SSE,155,0.0,-999.0,68,-99.99,,,0.00,weatherlink.com 1.10,2013-12-04 06:15:00,
2013-12-03 22:30:00,41.9,32.0,29.91,SSW,203,0.0,-999.0,68,-99.99,,,0.00,weatherlink.com 1.10,2013-12-04 06:30:00,
2013-12-03 22:45:00,41.9,32.0,29.91,SSW,203,0.0,-999.0,68,-99.99,,,0.00,weatherlink.com 1.10,2013-12-04 06:45:00,
2013-12-03 23:00:00,41.6,32.0,29.91,SSW,203,0.0,-999.0,69,-99.99,,,0.00,weatherlink.com 1.10,2013-12-04 07:00:00,
2013-12-03 23:15:00,41.2,32.0,29.92,SSW,203,0.0,-999.0,70,-99.99,,,0.00,weatherlink.com 1.10,2013-12-04 07:15:00,
2013-12-03 23:30:00,41.3,31.0,29.92,ENE,67,0.0,-999.0,66,-99.99,,,0.00,weatherlink.com 1.10,2013-12-04 07:30:00,
2013-12-03 23:45:00,41.2,30.0,29.92,ENE,67,0.0,-999.0,65,-99.99,,,0.00,weatherlink.com 1.10,2013-12-04 07:45:00,